Change the Weather History Date:

Wednesday, April 30, 2014

  Actual Average (KCBG) Record (KCBG)
Temperature  
Mean Temperature 38 °F -  
Max Temperature 42 °F 60 °F 88 °F (1952)
Min Temperature 34 °F 38 °F 20 °F (1989)
Degree Days  
Heating Degree Days 27    
Moisture  
Dew Point 35 °F    
Average Humidity 87    
Maximum Humidity 93    
Minimum Humidity 78    
Precipitation  
Precipitation 0.10 in - - ()
Sea Level Pressure  
Sea Level Pressure 29.75 in    
Wind  
Wind Speed 11 mph (North)    
Max Wind Speed 16 mph    
Max Gust Speed 24 mph    
Visibility 10 miles    
Events Rain    
Averages and records for this station are not official NWS values.
T = Trace of Precipitation, MM = Missing Value Source: NWS Daily Summary

Daily Weather History Graph

Daily Weather History Graph

Search for Another Location

Airport or City:

Trip Planner

Search our weather history database for the weather conditions in past years. The results will help you decide how hot, cold, wet, or windy it might be!

Date:

Astronomy

Apr. 30, 2014 Rise Set
Actual Time 6:00 AM CDT 8:17 PM CDT
Civil Twilight 5:28 AM CDT 8:50 PM CDT
Nautical Twilight 4:47 AM CDT 9:31 PM CDT
Astronomical Twilight 4:02 AM CDT 10:17 PM CDT
Moon 7:00 AM CDT (4/30) 9:59 PM CDT (4/30)
Length of Visible Light 15h 22m
Length of Day
14h 16m
New Moon, 2% of the Moon is Illuminated
Apr 30
New Moon
May 6
First Quarter
May 14
Full
May 21
Last Quarter
May 28
New

Hourly Weather History & Observations

Time (CDT) Temp. Windchill Dew Point Humidity Pressure Visibility Wind Dir Wind Speed Gust Speed Precip Events Conditions
12:15 AM 35.8 °F 27.8 °F 33.8 °F 92% 29.75 in 10.0 mi North 11.5 mph 17.3 mph N/A   Overcast
12:35 AM 35.8 °F 27.8 °F 33.4 °F 91% 29.75 in 10.0 mi North 11.5 mph 18.4 mph N/A   Overcast
12:55 AM 35.8 °F 27.8 °F 33.4 °F 91% 29.75 in 10.0 mi North 11.5 mph 19.6 mph N/A   Overcast
1:16 AM 35.8 °F 28.3 °F 33.3 °F 91% 29.75 in 10.0 mi North 10.4 mph 17.3 mph N/A   Overcast
1:35 AM 36.0 °F 28.5 °F 33.3 °F 90% 29.75 in 10.0 mi North 10.4 mph 19.6 mph N/A   Overcast
1:55 AM 36.1 °F 28.7 °F 33.4 °F 90% 29.75 in 10.0 mi North 10.4 mph 20.7 mph N/A   Overcast
2:16 AM 36.1 °F 28.7 °F 33.4 °F 90% 29.74 in 10.0 mi North 10.4 mph 16.1 mph N/A   Overcast
2:35 AM 36.5 °F 29.2 °F 33.8 °F 90% 29.74 in 10.0 mi North 10.4 mph 17.3 mph N/A   Overcast
2:55 AM 36.1 °F 28.7 °F 33.4 °F 90% 29.74 in 10.0 mi North 10.4 mph 16.1 mph N/A   Overcast
3:15 AM 36.1 °F 28.7 °F 33.4 °F 90% 29.74 in 10.0 mi North 10.4 mph 17.3 mph N/A Rain Light Rain
3:35 AM 35.8 °F 28.3 °F 33.3 °F 91% 29.74 in 10.0 mi North 10.4 mph - 0.01 in   Overcast
3:55 AM 35.8 °F 28.8 °F 33.3 °F 91% 29.74 in 10.0 mi North 9.2 mph - 0.01 in Rain Light Rain
4:15 AM 35.6 °F 28.6 °F 33.3 °F 91% 29.74 in 10.0 mi North 9.2 mph - N/A   Overcast
4:35 AM 35.6 °F 28.6 °F 33.4 °F 92% 29.74 in 10.0 mi North 9.2 mph - N/A   Overcast
4:55 AM 35.2 °F 28.1 °F 33.1 °F 92% 29.74 in 10.0 mi North 9.2 mph - 0.01 in Rain Light Rain
5:15 AM 35.1 °F 27.4 °F 32.9 °F 92% 29.74 in 10.0 mi North 10.4 mph - N/A Rain Light Rain
5:35 AM 34.9 °F 27.7 °F 32.9 °F 92% 29.74 in 10.0 mi North 9.2 mph - 0.02 in Rain Light Rain
6:15 AM 34.7 °F 27.5 °F 32.7 °F 92% 29.75 in 10.0 mi North 9.2 mph - 0.02 in Rain Light Rain
6:35 AM 34.7 °F 26.9 °F 32.9 °F 93% 29.75 in 10.0 mi North 10.4 mph - 0.02 in Rain Light Rain
6:56 AM 34.7 °F 27.5 °F 32.7 °F 92% 29.75 in 10.0 mi North 9.2 mph - 0.03 in Rain Light Rain
7:15 AM 34.7 °F 27.5 °F 32.5 °F 92% 29.75 in 10.0 mi North 9.2 mph - N/A Rain Light Rain
7:36 AM 34.9 °F 27.7 °F 32.9 °F 92% 29.74 in 10.0 mi North 9.2 mph - 0.02 in Rain Light Rain
7:55 AM 35.1 °F 28.6 °F 33.1 °F 92% 29.75 in 10.0 mi North 8.1 mph 16.1 mph 0.02 in Rain Light Rain
8:15 AM 35.6 °F 29.2 °F 33.4 °F 92% 29.75 in 10.0 mi North 8.1 mph - N/A Rain Light Rain
8:36 AM 36.1 °F 29.3 °F 34.2 °F 93% 29.75 in 10.0 mi North 9.2 mph - 0.01 in   Overcast
8:55 AM 37.2 °F 29.1 °F 35.1 °F 92% 29.75 in 10.0 mi North 12.7 mph 18.4 mph 0.01 in   Overcast
9:15 AM 37.8 °F 30.7 °F 35.6 °F 92% 29.75 in 10.0 mi North 10.4 mph - N/A   Overcast
9:35 AM 38.3 °F 30.5 °F 35.8 °F 91% 29.75 in 10.0 mi North 12.7 mph 19.6 mph N/A   Overcast
10:15 AM 39.2 °F 32.0 °F 36.5 °F 90% 29.75 in 10.0 mi North 11.5 mph 18.4 mph N/A   Overcast
10:35 AM 39.7 °F 31.9 °F 36.9 °F 89% 29.75 in 10.0 mi North 13.8 mph 20.7 mph N/A   Overcast
10:56 AM 39.6 °F 31.3 °F 36.5 °F 89% 29.75 in 10.0 mi North 15.0 mph 23.0 mph N/A   Overcast
11:15 AM 40.3 °F 34.4 °F 37.0 °F 88% 29.75 in 10.0 mi North 9.2 mph 18.4 mph N/A   Overcast
11:35 AM 40.3 °F 32.2 °F 36.9 °F 88% 29.75 in 10.0 mi North 15.0 mph 19.6 mph N/A   Overcast
11:56 AM 40.8 °F 34.1 °F 37.6 °F 88% 29.75 in 10.0 mi North 11.5 mph 16.1 mph N/A   Overcast
12:15 PM 40.5 °F 32.8 °F 37.2 °F 88% 29.75 in 10.0 mi North 13.8 mph - N/A   Overcast
12:35 PM 41.0 °F 33.9 °F 37.4 °F 87% 29.76 in 10.0 mi North 12.7 mph 18.4 mph N/A   Overcast
12:56 PM 41.2 °F 33.4 °F 38.1 °F 89% 29.75 in 10.0 mi North 15.0 mph 18.4 mph N/A   Overcast
1:15 PM 41.0 °F 34.3 °F 37.6 °F 88% 29.76 in 10.0 mi North 11.5 mph - N/A   Overcast
1:35 PM 41.2 °F 35.0 °F 37.6 °F 87% 29.76 in 10.0 mi North 10.4 mph 17.3 mph N/A   Overcast
1:56 PM 42.1 °F 34.9 °F 38.3 °F 86% 29.76 in 10.0 mi North 13.8 mph 17.3 mph N/A   Overcast
2:15 PM 41.7 °F 34.4 °F 37.9 °F 86% 29.76 in 10.0 mi North 13.8 mph 20.7 mph N/A   Overcast
2:35 PM 42.4 °F 35.3 °F 37.8 °F 83% 29.76 in 10.0 mi North 13.8 mph 17.3 mph N/A   Overcast
2:56 PM 42.1 °F 34.2 °F 37.0 °F 82% 29.76 in 10.0 mi North 16.1 mph 21.9 mph N/A   Overcast
3:15 PM 42.3 °F 34.8 °F 36.5 °F 80% 29.76 in 10.0 mi North 15.0 mph 21.9 mph N/A   Overcast
3:35 PM 42.4 °F 36.1 °F 36.9 °F 81% 29.76 in 10.0 mi North 11.5 mph 21.9 mph N/A   Overcast
3:55 PM 42.6 °F 35.6 °F 37.0 °F 81% 29.76 in 10.0 mi North 13.8 mph 23.0 mph N/A   Overcast
4:15 PM 42.6 °F 35.6 °F 36.5 °F 79% 29.76 in 10.0 mi North 13.8 mph 18.4 mph N/A   Overcast
4:35 PM 42.3 °F 35.5 °F 36.5 °F 80% 29.76 in 10.0 mi North 12.7 mph 17.3 mph N/A   Overcast
4:55 PM 42.1 °F 36.1 °F 36.1 °F 79% 29.76 in 10.0 mi NNE 10.4 mph - N/A   Overcast
5:15 PM 41.9 °F 35.0 °F 35.6 °F 78% 29.76 in 10.0 mi North 12.7 mph 24.2 mph N/A   Overcast
5:35 PM 41.9 °F 34.3 °F 35.8 °F 79% 29.76 in 10.0 mi North 15.0 mph 21.9 mph N/A   Overcast
5:55 PM 41.2 °F 34.1 °F 35.4 °F 80% 29.76 in 10.0 mi North 12.7 mph 24.2 mph N/A   Overcast
6:15 PM 41.0 °F 34.7 °F 36.0 °F 82% 29.76 in 10.0 mi North 10.4 mph - N/A   Overcast
6:35 PM 41.0 °F 33.9 °F 36.0 °F 82% 29.76 in 10.0 mi North 12.7 mph - N/A   Overcast
6:56 PM 41.2 °F 36.6 °F 35.8 °F 81% 29.76 in 10.0 mi North 6.9 mph - N/A   Overcast
7:15 PM 41.2 °F 36.0 °F 36.0 °F 82% 29.76 in 10.0 mi North 8.1 mph - N/A   Overcast
7:35 PM 41.2 °F 36.0 °F 36.0 °F 82% 29.76 in 10.0 mi North 8.1 mph - N/A   Overcast
7:56 PM 41.2 °F 36.6 °F 36.1 °F 82% 29.76 in 10.0 mi North 6.9 mph - N/A   Overcast
8:15 PM 41.0 °F 35.8 °F 36.0 °F 82% 29.76 in 10.0 mi North 8.1 mph - N/A   Overcast
8:35 PM 41.0 °F 34.7 °F 36.0 °F 82% 29.76 in 10.0 mi North 10.4 mph 19.6 mph N/A   Overcast
8:56 PM 40.6 °F 34.3 °F 36.0 °F 83% 29.76 in 10.0 mi North 10.4 mph 17.3 mph N/A   Overcast
9:15 PM 40.5 °F 35.1 °F 36.0 °F 84% 29.76 in 10.0 mi North 8.1 mph - N/A   Overcast
9:35 PM 40.3 °F 34.4 °F 36.0 °F 85% 29.76 in 10.0 mi North 9.2 mph 16.1 mph N/A   Overcast
9:56 PM 39.7 °F 34.3 °F 35.6 °F 85% 29.76 in 10.0 mi North 8.1 mph 16.1 mph N/A   Overcast
10:15 PM 39.7 °F 32.7 °F 35.8 °F 86% 29.76 in 10.0 mi NNW 11.5 mph - N/A   Overcast
10:35 PM 39.4 °F 33.8 °F 35.8 °F 87% 29.76 in 10.0 mi North 8.1 mph - N/A   Overcast
10:56 PM 39.2 °F 32.0 °F 35.2 °F 86% 29.75 in 10.0 mi North 11.5 mph 19.6 mph N/A   Overcast
11:15 PM 39.2 °F 34.2 °F 35.2 °F 86% 29.75 in 10.0 mi North 6.9 mph 10.4 mph N/A   Overcast
11:35 PM 39.0 °F 31.8 °F 35.6 °F 88% 29.75 in 10.0 mi North 11.5 mph - N/A   Overcast
11:56 PM 38.7 °F 31.8 °F 35.2 °F 87% 29.74 in 10.0 mi North 10.4 mph 16.1 mph N/A   Overcast